Location: Kikino
(54.4440°N, 112.0940°W)
Time: 19:37:38
(UTC+00:00)

A-11 Canister half - Pass Details

Date: 20 May 2024
Orbit: 1525 x 1683 km, 47.3° (Epoch: 12 June)

Event Time Altitude Azimuth Distance (km) Brightness Sun altitude
Rises 11:54:27 0° 284° (WNW) 4,816 11.2 4.0°
Reaches altitude 10° 11:58:14 10° 272° (W) 3,853 10.6 4.5°
Maximum altitude 12:05:36 25° 223° (SW) 2,891 10.0 5.4°
Drops below altitude 10° 12:13:07 10° 174° (S) 3,921 11.0 6.4°
Sets 12:17:02 0° 162° (SSE) 4,918 11.6 6.9°
